{"data":{"norad_id":64494,"epoch":"2026-09-20T13:40:04.128672Z","epoch_age_seconds":125565,"freshness":"FRESH","line1":"1 64494U 25133Y   26263.56949223  .00016605  00000+0  54461-3 0  9990","line2":"2 64494  53.1567 290.3034 0000737  97.0401 263.0684 15.31761247 70873","mean_motion":15.31761247,"eccentricity":7.37e-5,"inclination_deg":53.1567,"raan_deg":290.3034,"arg_perigee_deg":97.0401,"mean_anomaly_deg":263.0684,"bstar":0.00054461,"rev_number":7087,"period_min":94.009428872827,"perigee_km":470.0526784099,"apogee_km":471.06217596847,"semimajor_km":6848.6944271892,"source":"CELESTRAK","updated_at":"2026-09-21T09:00:35.362694Z"}}